This demonstration page uses our WeatherBlox Daily Observations layout. Learn more.

Left ArrowRight Arrow

38.83388, -104.82136

Hourly Observations for May 10, 2022

Temp ( °F °C ) Dew Point ( °F °C ) Humidity (%) Winds ( mph kmh ) Pressure ( in mb ) Visibility ( mi km ) Precip ( " mm )
12:58 am 00:58 undefined 49 9.4 33 0.6 55 55 NNW 16 26 29.48 998 N/A 0.00 0.00
1:58 am 01:58 Clear 47 8.5 31 -0.5 53 53 N 17 28 29.44 997 10 16 0.00 0.00
3:58 am 03:58 undefined 45 7.1 27 -2.9 49 49 NW 13 20 29.50 999 10 16 0.00 0.00
4:58 am 04:58 Clear 46 7.9 27 -3 46 46 NNW 6 9 29.52 1000 10 16 0.00 0.00
5:58 am 05:58 undefined 46 7.5 25 -3.7 45 45 S 5 7 29.53 1000 10 16 0.00 0.00
6:58 am 06:58 undefined N/A N/A N/A undefined N/A N/A N/A 0.00 0.00
7:58 am 07:58 Sunny 49 9.4 26 -3.5 40 40 SE 10 17 29.67 1005 10 16 0.00 0.00
8:58 am 08:58 Sunny 51 10.4 24 -4.4 35 35 SSE 15 24 29.68 1005 10 16 0.00 0.00
9:58 am 09:58 Sunny 53 11.5 25 -3.8 34 34 SE 17 28 29.69 1005 10 16 0.00 0.00
10:58 am 10:58 Sunny 56 13.4 26 -3.4 31 31 SE 20 31 29.84 1011 10 16 0.00 0.00
11:58 am 11:58 Sunny 60 15.5 26 -3.4 27 27 SE 20 31 29.82 1010 10 16 0.00 0.00
12:58 pm 12:58 Sunny 64 17.5 25 -3.9 23 23 SSE 13 20 29.74 1007 10 16 0.00 0.00
1:58 pm 13:58 Sunny 64 17.8 26 -3.6 23 23 SE 21 33 29.75 1007 10 16 0.00 0.00
2:58 pm 14:58 Sunny 66 19 25 -3.8 21 21 SE 20 31 29.76 1008 10 16 0.00 0.00
3:58 pm 15:58 Sunny 66 19.1 25 -3.8 21 21 SSE 23 37 29.75 1007 10 16 0.00 0.00
4:58 pm 16:58 Sunny 67 19.4 26 -3.5 21 21 SE 21 33 29.74 1007 10 16 0.00 0.00
5:58 pm 17:58 Sunny 66 18.9 27 -2.7 23 23 SSE 18 30 29.72 1006 10 16 0.00 0.00
6:58 pm 18:58 Sunny 65 18.4 28 -2 25 25 SSE 10 17 29.70 1006 10 16 0.00 0.00
7:58 pm 19:58 Sunny 64 18 29 -1.8 26 26 SSW 7 11 29.67 1005 10 16 0.00 0.00
8:58 pm 20:58 Clear 64 17.8 29 -1.5 27 27 SSW 5 7 29.67 1005 10 16 0.00 0.00
9:58 pm 21:58 Clear 61 15.9 28 -2.1 29 29 WNW 6 9 29.65 1004 10 16 0.00 0.00

Powered by AerisWeather